{"data":{"norad_id":63595,"intl_designator":"2025-076AC","name":"STARLINK-33831","alt_names":[],"object_type":"PAYLOAD","status":"ACTIVE","operator":null,"country":"US","launch_date":"2025-04-14","launch_site_code":"AFETR","launch_vehicle":null,"mission":null,"orbit_class":"UNKNOWN","rcs_meters":null,"size_class":null,"mass_kg":null,"dimensions":null,"purposes":["comms"],"wikipedia_slug":null,"has_3d_model":false,"image_url":null,"decayed_at":null,"tle_current":{"epoch":"2026-09-19T13:46:00.728256Z","epoch_age_seconds":232656,"freshness":"STALE","line1":"1 63595U 25076AC  26262.57361954  .00013118  00000+0  48538-3 0  9990","line2":"2 63595  43.0046 306.5683 0001298 265.3449  94.7254 15.27579161 81487","mean_motion":15.27579161,"eccentricity":0.0001298,"inclination_deg":43.0046,"raan_deg":306.5683,"arg_perigee_deg":265.3449,"mean_anomaly_deg":94.7254,"bstar":0.00048538,"rev_number":8148,"period_min":94.266800488253,"perigee_km":482.16102602727,"apogee_km":483.94219058999,"semimajor_km":6861.1886083086,"source":"CELESTRAK","updated_at":"2026-09-21T09:00:35.050093Z"}}}